LANDSAT 7

Last updated on Mon Sep 30 2024 00:02:24 GMT+0000 (Coordinated Universal Time)

1 25682U 99020A 24273.55777920 .00001445 00000+0 30365-3 0 9996 2 25682 97.8830 295.4108 0001664 81.1320 75.6143 14.60972889354373
UTC large
Height (km)
Speed (km/s)
/
Latitude / Longitude
Inclination (degrees)
Orbital Period (minutes)
Azimuth
Elevation
Range (km)
Doppler Factor

Next 0 passes for location: London (51.5072 / 0.1276)

Sorry there are no passes over London.
LANDSAT 7